timestamp,waterbody_station,lease,latitude,longitude,deployment_start_date,deployment_end_date,sensor,depth,mooring,Temperature_degrees Celsius,Dissolved Oxygen_percent saturation
2018-10-12T00:00:00,French Channel-Robinson Cove,1086.0,45.66,-62.411667,2018-05-22,2018-10-17,HOBO-20291479,1.0,float,10.98,
2018-10-12T00:15:00,French Channel-Robinson Cove,1086.0,45.66,-62.411667,2018-05-22,2018-10-17,HOBO-20291479,1.0,float,11.078,
2018-10-12T00:30:00,French Channel-Robinson Cove,1086.0,45.66,-62.411667,2018-05-22,2018-10-17,HOBO-20291479,1.0,float,11.102,
2018-10-12T00:45:00,French Channel-Robinson Cove,1086.0,45.66,-62.411667,2018-05-22,2018-10-17,HOBO-20291479,1.0,float,11.102,
2018-10-12T01:00:00,French Channel-Robinson Cove,1086.0,45.66,-62.411667,2018-05-22,2018-10-17,HOBO-20291479,1.0,float,11.102,
2018-10-12T01:15:00,French Channel-Robinson Cove,1086.0,45.66,-62.411667,2018-05-22,2018-10-17,HOBO-20291479,1.0,float,11.127,
2018-10-12T01:30:00,French Channel-Robinson Cove,1086.0,45.66,-62.411667,2018-05-22,2018-10-17,HOBO-20291479,1.0,float,10.932,
2018-10-12T01:45:00,French Channel-Robinson Cove,1086.0,45.66,-62.411667,2018-05-22,2018-10-17,HOBO-20291479,1.0,float,10.883,
2018-10-12T02:00:00,French Channel-Robinson Cove,1086.0,45.66,-62.411667,2018-05-22,2018-10-17,HOBO-20291479,1.0,float,10.858,
2018-10-12T02:15:00,French Channel-Robinson Cove,1086.0,45.66,-62.411667,2018-05-22,2018-10-17,HOBO-20291479,1.0,float,10.712,
2018-10-12T02:30:00,French Channel-Robinson Cove,1086.0,45.66,-62.411667,2018-05-22,2018-10-17,HOBO-20291479,1.0,float,10.565,
2018-10-12T02:45:00,French Channel-Robinson Cove,1086.0,45.66,-62.411667,2018-05-22,2018-10-17,HOBO-20291479,1.0,float,10.541,
2018-10-12T03:00:00,French Channel-Robinson Cove,1086.0,45.66,-62.411667,2018-05-22,2018-10-17,HOBO-20291479,1.0,float,10.492,
2018-10-12T03:15:00,French Channel-Robinson Cove,1086.0,45.66,-62.411667,2018-05-22,2018-10-17,HOBO-20291479,1.0,float,10.541,
2018-10-12T03:30:00,French Channel-Robinson Cove,1086.0,45.66,-62.411667,2018-05-22,2018-10-17,HOBO-20291479,1.0,float,10.271,
2018-10-12T03:45:00,French Channel-Robinson Cove,1086.0,45.66,-62.411667,2018-05-22,2018-10-17,HOBO-20291479,1.0,float,10.492,
2018-10-12T04:00:00,French Channel-Robinson Cove,1086.0,45.66,-62.411667,2018-05-22,2018-10-17,HOBO-20291479,1.0,float,10.516,
2018-10-12T04:15:00,French Channel-Robinson Cove,1086.0,45.66,-62.411667,2018-05-22,2018-10-17,HOBO-20291479,1.0,float,10.32,
2018-10-12T04:30:00,French Channel-Robinson Cove,1086.0,45.66,-62.411667,2018-05-22,2018-10-17,HOBO-20291479,1.0,float,10.198,
2018-10-12T04:45:00,French Channel-Robinson Cove,1086.0,45.66,-62.411667,2018-05-22,2018-10-17,HOBO-20291479,1.0,float,10.198,
2018-10-12T05:00:00,French Channel-Robinson Cove,1086.0,45.66,-62.411667,2018-05-22,2018-10-17,HOBO-20291479,1.0,float,10.173,
2018-10-12T05:15:00,French Channel-Robinson Cove,1086.0,45.66,-62.411667,2018-05-22,2018-10-17,HOBO-20291479,1.0,float,10.198,
2018-10-12T05:30:00,French Channel-Robinson Cove,1086.0,45.66,-62.411667,2018-05-22,2018-10-17,HOBO-20291479,1.0,float,10.271,
2018-10-12T05:45:00,French Channel-Robinson Cove,1086.0,45.66,-62.411667,2018-05-22,2018-10-17,HOBO-20291479,1.0,float,10.198,
2018-10-12T06:00:00,French Channel-Robinson Cove,1086.0,45.66,-62.411667,2018-05-22,2018-10-17,HOBO-20291479,1.0,float,10.075,
2018-10-12T06:15:00,French Channel-Robinson Cove,1086.0,45.66,-62.411667,2018-05-22,2018-10-17,HOBO-20291479,1.0,float,10.173,
2018-10-12T06:30:00,French Channel-Robinson Cove,1086.0,45.66,-62.411667,2018-05-22,2018-10-17,HOBO-20291479,1.0,float,10.247,
2018-10-12T06:45:00,French Channel-Robinson Cove,1086.0,45.66,-62.411667,2018-05-22,2018-10-17,HOBO-20291479,1.0,float,10.124,
2018-10-12T07:00:00,French Channel-Robinson Cove,1086.0,45.66,-62.411667,2018-05-22,2018-10-17,HOBO-20291479,1.0,float,10.051,
2018-10-12T07:15:00,French Channel-Robinson Cove,1086.0,45.66,-62.411667,2018-05-22,2018-10-17,HOBO-20291479,1.0,float,10.026,
2018-10-12T07:30:00,French Channel-Robinson Cove,1086.0,45.66,-62.411667,2018-05-22,2018-10-17,HOBO-20291479,1.0,float,9.903,
2018-10-12T07:45:00,French Channel-Robinson Cove,1086.0,45.66,-62.411667,2018-05-22,2018-10-17,HOBO-20291479,1.0,float,9.903,
2018-10-12T08:00:00,French Channel-Robinson Cove,1086.0,45.66,-62.411667,2018-05-22,2018-10-17,HOBO-20291479,1.0,float,9.903,
2018-10-12T08:15:00,French Channel-Robinson Cove,1086.0,45.66,-62.411667,2018-05-22,2018-10-17,HOBO-20291479,1.0,float,10.051,
2018-10-12T08:30:00,French Channel-Robinson Cove,1086.0,45.66,-62.411667,2018-05-22,2018-10-17,HOBO-20291479,1.0,float,10.075,
2018-10-12T08:45:00,French Channel-Robinson Cove,1086.0,45.66,-62.411667,2018-05-22,2018-10-17,HOBO-20291479,1.0,float,9.977,
2018-10-12T09:00:00,French Channel-Robinson Cove,1086.0,45.66,-62.411667,2018-05-22,2018-10-17,HOBO-20291479,1.0,float,10.075,
2018-10-12T09:15:00,French Channel-Robinson Cove,1086.0,45.66,-62.411667,2018-05-22,2018-10-17,HOBO-20291479,1.0,float,10.198,
2018-10-12T09:30:00,French Channel-Robinson Cove,1086.0,45.66,-62.411667,2018-05-22,2018-10-17,HOBO-20291479,1.0,float,10.173,
2018-10-12T09:45:00,French Channel-Robinson Cove,1086.0,45.66,-62.411667,2018-05-22,2018-10-17,HOBO-20291479,1.0,float,10.124,
2018-10-12T10:00:00,French Channel-Robinson Cove,1086.0,45.66,-62.411667,2018-05-22,2018-10-17,HOBO-20291479,1.0,float,10.149,
2018-10-12T10:15:00,French Channel-Robinson Cove,1086.0,45.66,-62.411667,2018-05-22,2018-10-17,HOBO-20291479,1.0,float,10.149,
2018-10-12T10:30:00,French Channel-Robinson Cove,1086.0,45.66,-62.411667,2018-05-22,2018-10-17,HOBO-20291479,1.0,float,10.247,
2018-10-12T10:45:00,French Channel-Robinson Cove,1086.0,45.66,-62.411667,2018-05-22,2018-10-17,HOBO-20291479,1.0,float,10.271,
2018-10-12T11:00:00,French Channel-Robinson Cove,1086.0,45.66,-62.411667,2018-05-22,2018-10-17,HOBO-20291479,1.0,float,10.32,
2018-10-12T11:15:00,French Channel-Robinson Cove,1086.0,45.66,-62.411667,2018-05-22,2018-10-17,HOBO-20291479,1.0,float,10.32,
2018-10-12T11:30:00,French Channel-Robinson Cove,1086.0,45.66,-62.411667,2018-05-22,2018-10-17,HOBO-20291479,1.0,float,10.369,
2018-10-12T11:45:00,French Channel-Robinson Cove,1086.0,45.66,-62.411667,2018-05-22,2018-10-17,HOBO-20291479,1.0,float,10.369,
2018-10-12T12:00:00,French Channel-Robinson Cove,1086.0,45.66,-62.411667,2018-05-22,2018-10-17,HOBO-20291479,1.0,float,10.418,
2018-10-12T12:15:00,French Channel-Robinson Cove,1086.0,45.66,-62.411667,2018-05-22,2018-10-17,HOBO-20291479,1.0,float,10.418,
2018-10-12T12:30:00,French Channel-Robinson Cove,1086.0,45.66,-62.411667,2018-05-22,2018-10-17,HOBO-20291479,1.0,float,10.418,
2018-10-12T12:45:00,French Channel-Robinson Cove,1086.0,45.66,-62.411667,2018-05-22,2018-10-17,HOBO-20291479,1.0,float,10.443,
2018-10-12T13:00:00,French Channel-Robinson Cove,1086.0,45.66,-62.411667,2018-05-22,2018-10-17,HOBO-20291479,1.0,float,10.467,
2018-10-12T13:15:00,French Channel-Robinson Cove,1086.0,45.66,-62.411667,2018-05-22,2018-10-17,HOBO-20291479,1.0,float,10.614,
2018-10-12T13:30:00,French Channel-Robinson Cove,1086.0,45.66,-62.411667,2018-05-22,2018-10-17,HOBO-20291479,1.0,float,10.663,
2018-10-12T13:45:00,French Channel-Robinson Cove,1086.0,45.66,-62.411667,2018-05-22,2018-10-17,HOBO-20291479,1.0,float,10.687,
2018-10-12T14:00:00,French Channel-Robinson Cove,1086.0,45.66,-62.411667,2018-05-22,2018-10-17,HOBO-20291479,1.0,float,10.59,
2018-10-12T14:15:00,French Channel-Robinson Cove,1086.0,45.66,-62.411667,2018-05-22,2018-10-17,HOBO-20291479,1.0,float,10.638,
2018-10-12T14:30:00,French Channel-Robinson Cove,1086.0,45.66,-62.411667,2018-05-22,2018-10-17,HOBO-20291479,1.0,float,10.663,
2018-10-12T14:45:00,French Channel-Robinson Cove,1086.0,45.66,-62.411667,2018-05-22,2018-10-17,HOBO-20291479,1.0,float,10.663,
2018-10-12T15:00:00,French Channel-Robinson Cove,1086.0,45.66,-62.411667,2018-05-22,2018-10-17,HOBO-20291479,1.0,float,10.663,
2018-10-12T15:15:00,French Channel-Robinson Cove,1086.0,45.66,-62.411667,2018-05-22,2018-10-17,HOBO-20291479,1.0,float,10.834,
2018-10-12T15:30:00,French Channel-Robinson Cove,1086.0,45.66,-62.411667,2018-05-22,2018-10-17,HOBO-20291479,1.0,float,11.078,
2018-10-12T15:45:00,French Channel-Robinson Cove,1086.0,45.66,-62.411667,2018-05-22,2018-10-17,HOBO-20291479,1.0,float,11.053,
2018-10-12T16:00:00,French Channel-Robinson Cove,1086.0,45.66,-62.411667,2018-05-22,2018-10-17,HOBO-20291479,1.0,float,11.005,
2018-10-12T16:15:00,French Channel-Robinson Cove,1086.0,45.66,-62.411667,2018-05-22,2018-10-17,HOBO-20291479,1.0,float,11.005,
2018-10-12T16:30:00,French Channel-Robinson Cove,1086.0,45.66,-62.411667,2018-05-22,2018-10-17,HOBO-20291479,1.0,float,11.029,
2018-10-12T16:45:00,French Channel-Robinson Cove,1086.0,45.66,-62.411667,2018-05-22,2018-10-17,HOBO-20291479,1.0,float,10.907,
2018-10-12T17:00:00,French Channel-Robinson Cove,1086.0,45.66,-62.411667,2018-05-22,2018-10-17,HOBO-20291479,1.0,float,10.883,
2018-10-12T17:15:00,French Channel-Robinson Cove,1086.0,45.66,-62.411667,2018-05-22,2018-10-17,HOBO-20291479,1.0,float,10.932,
2018-10-12T17:30:00,French Channel-Robinson Cove,1086.0,45.66,-62.411667,2018-05-22,2018-10-17,HOBO-20291479,1.0,float,10.883,
2018-10-12T17:45:00,French Channel-Robinson Cove,1086.0,45.66,-62.411667,2018-05-22,2018-10-17,HOBO-20291479,1.0,float,10.907,
2018-10-12T18:00:00,French Channel-Robinson Cove,1086.0,45.66,-62.411667,2018-05-22,2018-10-17,HOBO-20291479,1.0,float,10.81,
2018-10-12T18:15:00,French Channel-Robinson Cove,1086.0,45.66,-62.411667,2018-05-22,2018-10-17,HOBO-20291479,1.0,float,10.834,
2018-10-12T18:30:00,French Channel-Robinson Cove,1086.0,45.66,-62.411667,2018-05-22,2018-10-17,HOBO-20291479,1.0,float,10.883,
2018-10-12T18:45:00,French Channel-Robinson Cove,1086.0,45.66,-62.411667,2018-05-22,2018-10-17,HOBO-20291479,1.0,float,11.029,
2018-10-12T19:00:00,French Channel-Robinson Cove,1086.0,45.66,-62.411667,2018-05-22,2018-10-17,HOBO-20291479,1.0,float,10.932,
2018-10-12T19:15:00,French Channel-Robinson Cove,1086.0,45.66,-62.411667,2018-05-22,2018-10-17,HOBO-20291479,1.0,float,10.883,
2018-10-12T19:30:00,French Channel-Robinson Cove,1086.0,45.66,-62.411667,2018-05-22,2018-10-17,HOBO-20291479,1.0,float,10.81,
2018-10-12T19:45:00,French Channel-Robinson Cove,1086.0,45.66,-62.411667,2018-05-22,2018-10-17,HOBO-20291479,1.0,float,10.785,
2018-10-12T20:00:00,French Channel-Robinson Cove,1086.0,45.66,-62.411667,2018-05-22,2018-10-17,HOBO-20291479,1.0,float,10.81,
2018-10-12T20:15:00,French Channel-Robinson Cove,1086.0,45.66,-62.411667,2018-05-22,2018-10-17,HOBO-20291479,1.0,float,10.834,
2018-10-12T20:30:00,French Channel-Robinson Cove,1086.0,45.66,-62.411667,2018-05-22,2018-10-17,HOBO-20291479,1.0,float,10.858,
2018-10-12T20:45:00,French Channel-Robinson Cove,1086.0,45.66,-62.411667,2018-05-22,2018-10-17,HOBO-20291479,1.0,float,10.858,
2018-10-12T21:00:00,French Channel-Robinson Cove,1086.0,45.66,-62.411667,2018-05-22,2018-10-17,HOBO-20291479,1.0,float,10.883,
2018-10-12T21:15:00,French Channel-Robinson Cove,1086.0,45.66,-62.411667,2018-05-22,2018-10-17,HOBO-20291479,1.0,float,10.907,
2018-10-12T21:30:00,French Channel-Robinson Cove,1086.0,45.66,-62.411667,2018-05-22,2018-10-17,HOBO-20291479,1.0,float,10.932,
2018-10-12T21:45:00,French Channel-Robinson Cove,1086.0,45.66,-62.411667,2018-05-22,2018-10-17,HOBO-20291479,1.0,float,11.005,
2018-10-12T22:00:00,French Channel-Robinson Cove,1086.0,45.66,-62.411667,2018-05-22,2018-10-17,HOBO-20291479,1.0,float,11.005,
2018-10-12T22:15:00,French Channel-Robinson Cove,1086.0,45.66,-62.411667,2018-05-22,2018-10-17,HOBO-20291479,1.0,float,10.956,
2018-10-12T22:30:00,French Channel-Robinson Cove,1086.0,45.66,-62.411667,2018-05-22,2018-10-17,HOBO-20291479,1.0,float,10.956,
2018-10-12T22:45:00,French Channel-Robinson Cove,1086.0,45.66,-62.411667,2018-05-22,2018-10-17,HOBO-20291479,1.0,float,10.956,
2018-10-12T23:00:00,French Channel-Robinson Cove,1086.0,45.66,-62.411667,2018-05-22,2018-10-17,HOBO-20291479,1.0,float,10.98,
2018-10-12T23:15:00,French Channel-Robinson Cove,1086.0,45.66,-62.411667,2018-05-22,2018-10-17,HOBO-20291479,1.0,float,11.005,
2018-10-12T23:30:00,French Channel-Robinson Cove,1086.0,45.66,-62.411667,2018-05-22,2018-10-17,HOBO-20291479,1.0,float,11.005,
2018-10-12T23:45:00,French Channel-Robinson Cove,1086.0,45.66,-62.411667,2018-05-22,2018-10-17,HOBO-20291479,1.0,float,11.029,
